K9JM Weather Reports


time (UTC)temp
F
wind
direction
speed
knots
gust
knots
rain 1hr
in
rain 24hr
in
rain mn
in
humidity
%
barometer
mb
20260510024516 74 0.0 0.0 0.00 0.00 0.00 62 1013.2
20260510023016 75 0.0 0.0 0.00 0.00 0.00 63 1012.9
20260510021536 75 0.0 0.0 0.00 0.00 0.00 61 1012.7
20260510020017 76 0.0 0.0 0.00 0.00 0.00 59 1012.9
20260510014536 77 0.0 0.0 0.00 0.00 0.00 58 1012.9
20260510013016 78 0.0 0.0 0.00 0.00 0.00 57 1013.1
20260510011516 78 0.0 0.0 0.00 0.00 0.00 59 1013.3
20260510010036 78 0.0 0.0 0.00 0.00 0.00 57 1013.2
20260510004536 78 0.0 0.0 0.00 0.00 0.00 58 1013.3
20260510003016 79 0.0 0.0 0.00 0.00 0.00 52 1013.2
20260510001517 78 0.0 0.0 0.00 0.00 0.00 56 1013.3
20260510000016 79 0.0 0.0 0.00 0.00 0.00 52 1013.5
20260509234517 78 0.0 0.0 0.00 0.00 0.00 57 1013.7
20260509233017 78 0.0 0.0 0.00 0.00 0.00 55 1013.7
20260509231517 78 0.0 0.0 0.00 0.00 0.00 59 1013.9
20260509230036 79 0.0 0.0 0.00 0.00 0.00 55 1013.9
20260509224516 79 0.0 0.0 0.00 0.00 0.00 55 1014.1
20260509223016 78 0.0 0.0 0.00 0.00 0.00 59 1014.1
20260509221516 79 0.0 0.0 0.00 0.00 0.00 59 1014.4
20260509220036 79 0.0 0.0 0.00 0.00 0.00 60 1014.4
20260509214516 79 0.0 0.0 0.00 0.00 0.00 58 1014.4
20260509213016 79 0.0 0.0 0.00 0.00 0.00 59 1014.7
20260509211516 79 0.0 0.0 0.00 0.00 0.00 57 1014.9
20260509210036 79 0.0 0.0 0.00 0.00 0.00 60 1015.0
20260509204516 78 0.0 0.0 0.00 0.00 0.00 60 1015.1
20260509203016 78 0.0 0.0 0.00 0.00 0.00 59 1015.0
20260509201516 78 0.0 0.0 0.00 0.00 0.00 61 1015.0
20260509200016 78 0.0 0.0 0.00 0.00 0.00 61 1015.2
20260509194516 77 0.0 0.0 0.00 0.00 0.00 59 1015.3
20260509193016 77 0.0 0.0 0.00 0.00 0.00 58 1015.4
20260509191516 77 0.0 0.0 0.00 0.00 0.00 63 1015.5
20260509190016 76 0.0 0.0 0.00 0.00 0.00 61 1015.7
20260509184536 76 0.0 0.0 0.00 0.00 0.00 63 1015.8
20260509183016 76 0.0 0.0 0.00 0.00 0.00 62 1015.7
20260509181516 76 0.0 0.0 0.00 0.00 0.00 62 1015.7
20260509180016 75 0.0 0.0 0.00 0.00 0.00 60 1015.8
20260509174536 75 0.0 0.0 0.00 0.00 0.00 59 1015.8
20260509173016 74 0.0 0.0 0.00 0.00 0.00 59 1015.7
20260509171516 74 0.0 0.0 0.00 0.00 0.00 58 1015.6
20260509170016 74 0.0 0.0 0.00 0.00 0.00 57 1015.8
20260509164516 73 0.0 0.0 0.00 0.00 0.00 60 1015.5
20260509163016 73 0.0 0.0 0.00 0.00 0.00 60 1015.6
20260509161516 72 0.0 0.0 0.00 0.00 0.00 63 1015.5
20260509160016 71 0.0 0.0 0.00 0.00 0.00 59 1015.3
20260509154516 70 0.0 0.0 0.00 0.00 0.00 59 1015.2
20260509153056 69 0.0 0.0 0.00 0.00 0.00 63 1015.3
20260509151516 68 0.0 0.0 0.00 0.00 0.00 61 1015.3
20260509150016 67 0.0 0.0 0.00 0.00 0.00 64 1015.4
20260509144516 66 0.0 0.0 0.00 0.00 0.00 66 1015.2
20260509143056 64 0.0 0.0 0.00 0.00 0.00 67 1015.2
20260509141516 63 0.0 0.0 0.00 0.00 0.00 69 1015.1
20260509140016 60 0.0 0.0 0.00 0.00 0.00 73 1014.8
20260509134556 60 0.0 0.0 0.00 0.00 0.00 75 1014.7
20260509133016 60 0.0 0.0 0.00 0.00 0.00 74 1014.9
20260509131516 60 0.0 0.0 0.00 0.00 0.00 73 1014.8
20260509130016 60 0.0 0.0 0.00 0.00 0.00 72 1015.0
20260509124516 61 0.0 0.0 0.00 0.00 0.00 72 1015.0
20260509123016 61 0.0 0.0 0.00 0.00 0.00 70 1014.9
20260509121516 60 0.0 0.0 0.00 0.00 0.00 71 1014.8
20260509120056 61 0.0 0.0 0.00 0.00 0.00 73 1014.8
20260509114516 60 0.0 0.0 0.00 0.00 0.00 73 1014.7
20260509113016 60 0.0 0.0 0.00 0.00 0.00 74 1014.7
20260509111515 60 0.0 0.0 0.00 0.00 0.00 76 1014.7
20260509110036 60 0.0 0.0 0.00 0.00 0.00 75 1014.8
20260509104516 61 0.0 0.0 0.00 0.00 0.00 75 1014.8
20260509103016 61 0.0 0.0 0.00 0.00 0.00 76 1015.0
20260509101516 61 0.0 0.0 0.00 0.00 0.00 77 1015.2
20260509100016 61 0.0 0.0 0.00 0.00 0.00 77 1015.2
20260509094516 61 0.0 0.0 0.00 0.00 0.00 77 1015.3
20260509093015 61 0.0 0.0 0.00 0.00 0.00 77 1015.3
20260509091515 61 0.0 0.0 0.00 0.00 0.00 76 1015.4
20260509090035 62 0.0 0.0 0.00 0.00 0.00 77 1015.4
20260509084536 62 0.0 0.0 0.00 0.00 0.00 78 1015.5
20260509083015 62 0.0 0.0 0.00 0.00 0.00 78 1015.6
20260509081515 62 0.0 0.0 0.00 0.00 0.00 77 1015.8
20260509080016 63 0.0 0.0 0.00 0.00 0.00 78 1015.7
20260509074515 63 0.0 0.0 0.00 0.00 0.00 78 1015.8
20260509073015 63 0.0 0.0 0.00 0.00 0.00 77 1016.0
20260509071516 63 0.0 0.0 0.00 0.00 0.00 77 1015.9
20260509070035 64 0.0 0.0 0.00 0.00 0.00 76 1016.0
20260509064516 64 0.0 0.0 0.00 0.00 0.00 76 1015.9
20260509063017 64 0.0 0.0 0.00 0.00 0.00 75 1016.2
20260509061536 65 0.0 0.0 0.00 0.00 0.00 73 1016.3
20260509060017 65 0.0 0.0 0.00 0.00 0.00 72 1016.2
20260509054517 66 0.0 0.0 0.00 0.00 0.00 72 1016.2
20260509053017 66 0.0 0.0 0.00 0.00 0.00 71 1016.2
20260509051517 67 0.0 0.0 0.00 0.00 0.00 70 1016.2
20260509050017 67 0.0 0.0 0.00 0.00 0.00 70 1016.3
20260509044517 68 0.0 0.0 0.00 0.00 0.00 68 1016.2
20260509043016 69 0.0 0.0 0.00 0.00 0.00 67 1016.2
20260509041516 70 0.0 0.0 0.00 0.00 0.00 66 1016.1
20260509040017 69 0.0 0.0 0.00 0.00 0.00 67 1016.0
20260509034517 69 0.0 0.0 0.00 0.00 0.00 66 1015.9
20260509033016 69 0.0 0.0 0.00 0.00 0.00 66 1015.5
20260509031516 70 0.0 0.0 0.00 0.00 0.00 67 1015.6
20260509030016 70 0.0 0.0 0.00 0.00 0.00 66 1015.3